| time (UTC) | temp C | wind direction | speed KPH | gust KPH | rain 1hr cm | rain 24hr cm | rain mn cm | humidity % | barometer mb |
| 20260504110311 | 4 | 248 | 0.0 | 0.0 | 0.00 | 0.00 | 0.00 | 99 | 1015.0 |
| 20260504100228 | 4 | 265 | 0.0 | 0.0 | 0.00 | 0.00 | 0.00 | 98 | 1014.5 |
| 20260504081622 | 5 | 270 | 0.0 | 0.0 | 0.00 | 0.00 | 0.00 | 96 | 1014.7 |
| 20260504081118 | 5 | 270 | 0.0 | 0.0 | 0.00 | 0.00 | 0.00 | 96 | 1014.5 |
| 20260504080615 | 5 | 270 | 0.0 | 0.0 | 0.00 | 0.00 | 0.00 | 96 | 1014.6 |
| 20260504080111 | 5 | 270 | 0.0 | 0.0 | 0.00 | 0.00 | 0.00 | 96 | 1014.5 |
| 20260504050427 | 8 | 290 | 1.6 | 1.6 | 0.00 | 0.00 | 0.00 | 85 | 1015.6 |
| 20260504045924 | 7 | 280 | 0.0 | 0.0 | 0.00 | 0.00 | 0.00 | 86 | 1015.3 |
| 20260504045420 | 8 | 313 | 1.6 | 3.2 | 0.00 | 0.00 | 0.00 | 85 | 1015.5 |
| 20260504044916 | 8 | 280 | 0.0 | 0.0 | 0.00 | 0.00 | 0.00 | 84 | 1015.3 |
| 20260504044414 | 7 | 280 | 0.0 | 0.0 | 0.00 | 0.00 | 0.00 | 85 | 1015.1 |
| 20260504043911 | 7 | 270 | 0.0 | 0.0 | 0.00 | 0.00 | 0.00 | 86 | 1015.2 |
| 20260504043408 | 7 | 280 | 0.0 | 0.0 | 0.00 | 0.00 | 0.00 | 86 | 1015.2 |
| 20260504042906 | 8 | 280 | 0.0 | 0.0 | 0.00 | 0.00 | 0.00 | 86 | 1015.1 |
| 20260504042402 | 8 | 287 | 0.0 | 0.0 | 0.00 | 0.00 | 0.00 | 85 | 1015.1 |
| 20260504041858 | 8 | 280 | 0.0 | 0.0 | 0.00 | 0.00 | 0.00 | 85 | 1015.3 |
| 20260504041354 | 8 | 280 | 0.0 | 0.0 | 0.00 | 0.00 | 0.00 | 83 | 1015.3 |
| 20260504040850 | 8 | 280 | 0.0 | 0.0 | 0.00 | 0.00 | 0.00 | 82 | 1015.3 |
| 20260504040348 | 8 | 280 | 0.0 | 0.0 | 0.00 | 0.00 | 0.00 | 82 | 1015.4 |
| 20260504035844 | 8 | 288 | 0.0 | 0.0 | 0.00 | 0.00 | 0.00 | 79 | 1015.3 |
| 20260504035342 | 9 | 280 | 0.0 | 0.0 | 0.00 | 0.00 | 0.00 | 79 | 1015.4 |
| 20260504034838 | 9 | 288 | 0.0 | 0.0 | 0.00 | 0.00 | 0.00 | 79 | 1015.3 |
| 20260504034336 | 9 | 290 | 0.0 | 0.0 | 0.00 | 0.00 | 0.00 | 80 | 1015.2 |
| 20260504033833 | 9 | 280 | 0.0 | 0.0 | 0.00 | 0.00 | 0.00 | 81 | 1015.2 |
| 20260504033331 | 9 | 280 | 0.0 | 0.0 | 0.00 | 0.00 | 0.00 | 80 | 1015.4 |
| 20260504032827 | 9 | 304 | 1.6 | 1.6 | 0.00 | 0.00 | 0.00 | 81 | 1015.3 |
| 20260504032325 | 9 | 297 | 1.6 | 3.2 | 0.00 | 0.00 | 0.00 | 81 | 1015.6 |
| 20260504031821 | 9 | 279 | 0.0 | 0.0 | 0.00 | 0.00 | 0.00 | 81 | 1015.1 |
| 20260504031319 | 9 | 273 | 0.0 | 0.0 | 0.00 | 0.00 | 0.00 | 82 | 1015.4 |
| 20260504030815 | 9 | 264 | 0.0 | 0.0 | 0.00 | 0.00 | 0.00 | 81 | 1015.3 |
| 20260504030312 | 9 | 264 | 0.0 | 0.0 | 0.00 | 0.00 | 0.00 | 79 | 1015.2 |
| 20260504025808 | 10 | 263 | 0.0 | 0.0 | 0.00 | 0.00 | 0.00 | 80 | 1015.1 |
| 20260504025305 | 10 | 270 | 0.0 | 0.0 | 0.00 | 0.00 | 0.00 | 78 | 1015.3 |
| 20260504024801 | 10 | 273 | 0.0 | 0.0 | 0.00 | 0.00 | 0.00 | 80 | 1015.4 |
| 20260504024258 | 10 | 266 | 0.0 | 0.0 | 0.00 | 0.00 | 0.00 | 78 | 1015.5 |
| 20260504023755 | 10 | 252 | 1.6 | 1.6 | 0.00 | 0.00 | 0.00 | 78 | 1015.2 |
| 20260504023252 | 10 | 280 | 0.0 | 0.0 | 0.00 | 0.00 | 0.00 | 76 | 1015.2 |
| 20260504022747 | 10 | 280 | 0.0 | 0.0 | 0.00 | 0.00 | 0.00 | 76 | 1015.2 |
| 20260504022244 | 11 | 280 | 0.0 | 0.0 | 0.00 | 0.00 | 0.00 | 74 | 1015.0 |
| 20260504021741 | 11 | 291 | 1.6 | 1.6 | 0.00 | 0.00 | 0.00 | 75 | 1015.0 |
| 20260504021238 | 11 | 288 | 1.6 | 1.6 | 0.00 | 0.00 | 0.00 | 73 | 1015.0 |
| 20260504020735 | 11 | 289 | 1.6 | 1.6 | 0.00 | 0.00 | 0.00 | 73 | 1015.1 |
| 20260504020232 | 11 | 288 | 1.6 | 1.6 | 0.00 | 0.00 | 0.00 | 72 | 1015.0 |
| 20260504015728 | 11 | 288 | 1.6 | 1.6 | 0.00 | 0.00 | 0.00 | 71 | 1015.1 |
| 20260504015224 | 11 | 288 | 1.6 | 1.6 | 0.00 | 0.00 | 0.00 | 71 | 1015.0 |
| 20260504014720 | 11 | 297 | 1.6 | 3.2 | 0.00 | 0.00 | 0.00 | 72 | 1014.7 |
| 20260504014217 | 11 | 271 | 1.6 | 1.6 | 0.00 | 0.00 | 0.00 | 72 | 1014.5 |
| 20260504013715 | 11 | 275 | 1.6 | 1.6 | 0.00 | 0.00 | 0.00 | 72 | 1014.9 |
| 20260504013212 | 11 | 275 | 1.6 | 1.6 | 0.00 | 0.00 | 0.00 | 70 | 1014.3 |
| 20260504012709 | 12 | 275 | 1.6 | 1.6 | 0.00 | 0.00 | 0.00 | 69 | 1014.6 |
| 20260504012207 | 12 | 275 | 1.6 | 1.6 | 0.00 | 0.00 | 0.00 | 70 | 1014.5 |
| 20260504011703 | 12 | 270 | 1.6 | 1.6 | 0.00 | 0.00 | 0.00 | 68 | 1014.4 |
| 20260504011200 | 12 | 270 | 1.6 | 1.6 | 0.00 | 0.00 | 0.00 | 66 | 1014.4 |
| 20260504010656 | 12 | 270 | 1.6 | 1.6 | 0.00 | 0.00 | 0.00 | 67 | 1014.3 |
| 20260504010151 | 13 | 265 | 0.0 | 1.6 | 0.00 | 0.00 | 0.00 | 67 | 1014.4 |
| 20260504005649 | 13 | 255 | 0.0 | 0.0 | 0.00 | 0.00 | 0.00 | 63 | 1014.2 |
| 20260504005145 | 13 | 255 | 0.0 | 0.0 | 0.00 | 0.00 | 0.00 | 62 | 1014.4 |
| 20260504004644 | 13 | 255 | 0.0 | 0.0 | 0.00 | 0.00 | 0.00 | 63 | 1014.2 |
| 20260504004140 | 13 | 255 | 0.0 | 0.0 | 0.00 | 0.00 | 0.00 | 62 | 1014.1 |
| 20260504003637 | 14 | 255 | 0.0 | 0.0 | 0.00 | 0.00 | 0.00 | 61 | 1014.2 |
| 20260504003133 | 15 | 255 | 0.0 | 0.0 | 0.00 | 0.00 | 0.00 | 58 | 1014.2 |
| 20260504002630 | 15 | 255 | 0.0 | 0.0 | 0.00 | 0.00 | 0.00 | 57 | 1014.4 |
| 20260504002128 | 15 | 255 | 0.0 | 0.0 | 0.00 | 0.00 | 0.00 | 57 | 1014.2 |
| 20260504001626 | 15 | 253 | 0.0 | 0.0 | 0.00 | 0.00 | 0.00 | 55 | 1014.1 |
| 20260504001121 | 15 | 260 | 0.0 | 0.0 | 0.00 | 0.00 | 0.00 | 54 | 1014.1 |
| 20260504000619 | 16 | 248 | 0.0 | 1.6 | 0.00 | 0.00 | 0.00 | 54 | 1013.9 |
| 20260504000116 | 16 | 264 | 0.0 | 1.6 | 0.00 | 0.00 | 0.00 | 53 | 1013.9 |
| 20260503235614 | 16 | 265 | 1.6 | 1.6 | 0.00 | 0.00 | 0.00 | 50 | 1013.7 |
| 20260503235110 | 16 | 265 | 0.0 | 1.6 | 0.00 | 0.00 | 0.00 | 49 | 1013.8 |
| 20260503234609 | 16 | 265 | 1.6 | 1.6 | 0.00 | 0.00 | 0.00 | 49 | 1013.6 |
| 20260503234106 | 16 | 261 | 3.2 | 3.2 | 0.00 | 0.00 | 0.00 | 49 | 1013.7 |
| 20260503233603 | 17 | 264 | 0.0 | 1.6 | 0.00 | 0.00 | 0.00 | 49 | 1014.0 |
| 20260503233059 | 17 | 263 | 1.6 | 3.2 | 0.00 | 0.00 | 0.00 | 48 | 1013.8 |
| 20260503232556 | 17 | 262 | 0.0 | 0.0 | 0.00 | 0.00 | 0.00 | 47 | 1013.7 |
| 20260503232053 | 17 | 234 | 1.6 | 1.6 | 0.00 | 0.00 | 0.00 | 51 | 1013.8 |
| 20260503231551 | 17 | 274 | 1.6 | 1.6 | 0.00 | 0.00 | 0.00 | 46 | 1013.6 |
| 20260503231047 | 17 | 267 | 1.6 | 1.6 | 0.00 | 0.00 | 0.00 | 44 | 1013.9 |
| 20260503230544 | 17 | 289 | 1.6 | 1.6 | 0.00 | 0.00 | 0.00 | 44 | 1013.9 |
| 20260503230041 | 17 | 263 | 1.6 | 1.6 | 0.00 | 0.00 | 0.00 | 43 | 1013.9 |
| 20260503225538 | 17 | 247 | 1.6 | 3.2 | 0.00 | 0.00 | 0.00 | 42 | 1013.8 |
| 20260503225039 | 17 | 250 | 1.6 | 1.6 | 0.00 | 0.00 | 0.00 | 42 | 1013.8 |
| 20260503224537 | 17 | 256 | 1.6 | 1.6 | 0.00 | 0.00 | 0.00 | 41 | 1013.9 |
| 20260503224034 | 18 | 262 | 1.6 | 1.6 | 0.00 | 0.00 | 0.00 | 41 | 1013.9 |
| 20260503223532 | 18 | 262 | 0.0 | 1.6 | 0.00 | 0.00 | 0.00 | 42 | 1014.1 |
| 20260503223027 | 18 | 270 | 1.6 | 3.2 | 0.00 | 0.00 | 0.00 | 40 | 1013.9 |
| 20260503222526 | 18 | 250 | 3.2 | 3.2 | 0.00 | 0.00 | 0.00 | 39 | 1014.1 |
| 20260503222024 | 18 | 266 | 3.2 | 3.2 | 0.00 | 0.00 | 0.00 | 38 | 1013.9 |
| 20260503221522 | 18 | 259 | 3.2 | 3.2 | 0.00 | 0.00 | 0.00 | 39 | 1014.0 |
| 20260503221019 | 18 | 261 | 1.6 | 1.6 | 0.00 | 0.00 | 0.00 | 39 | 1014.0 |
| 20260503220515 | 18 | 348 | 1.6 | 3.2 | 0.00 | 0.00 | 0.00 | 41 | 1014.2 |
| 20260503220012 | 18 | 262 | 1.6 | 3.2 | 0.00 | 0.00 | 0.00 | 40 | 1014.1 |
| 20260503215509 | 18 | 266 | 1.6 | 3.2 | 0.00 | 0.00 | 0.00 | 39 | 1014.1 |
| 20260503215006 | 18 | 249 | 4.8 | 4.8 | 0.00 | 0.00 | 0.00 | 39 | 1013.9 |
| 20260503214504 | 18 | 252 | 1.6 | 1.6 | 0.00 | 0.00 | 0.00 | 38 | 1014.0 |
| 20260503214000 | 18 | 267 | 1.6 | 3.2 | 0.00 | 0.00 | 0.00 | 38 | 1014.0 |
| 20260503213459 | 19 | 262 | 3.2 | 3.2 | 0.00 | 0.00 | 0.00 | 43 | 1014.0 |
| 20260503212955 | 18 | 261 | 0.0 | 1.6 | 0.00 | 0.00 | 0.00 | 37 | 1014.1 |
| 20260503212452 | 19 | 252 | 1.6 | 1.6 | 0.00 | 0.00 | 0.00 | 33 | 1014.2 |
| 20260503211949 | 19 | 279 | 3.2 | 3.2 | 0.00 | 0.00 | 0.00 | 39 | 1014.2 |
| 20260503211447 | 19 | 267 | 1.6 | 3.2 | 0.00 | 0.00 | 0.00 | 39 | 1014.3 |
| 20260503210942 | 19 | 247 | 1.6 | 1.6 | 0.00 | 0.00 | 0.00 | 40 | 1014.1 |
| 20260503210439 | 19 | 216 | 1.6 | 1.6 | 0.00 | 0.00 | 0.00 | 42 | 1014.1 |
| 20260503205934 | 19 | 301 | 3.2 | 3.2 | 0.00 | 0.00 | 0.00 | 38 | 1014.2 |
| 20260503205431 | 19 | 247 | 1.6 | 3.2 | 0.00 | 0.00 | 0.00 | 40 | 1014.3 |
| 20260503204927 | 19 | 241 | 1.6 | 1.6 | 0.00 | 0.00 | 0.00 | 40 | 1014.4 |
| 20260503204425 | 18 | 239 | 6.4 | 8.0 | 0.00 | 0.00 | 0.00 | 41 | 1014.4 |
| 20260503203922 | 19 | 215 | 6.4 | 8.0 | 0.00 | 0.00 | 0.00 | 44 | 1014.7 |
| 20260503203419 | 19 | 273 | 1.6 | 1.6 | 0.00 | 0.00 | 0.00 | 44 | 1014.4 |
| 20260503202916 | 19 | 254 | 1.6 | 1.6 | 0.00 | 0.00 | 0.00 | 42 | 1014.4 |
| 20260503202414 | 19 | 276 | 4.8 | 4.8 | 0.00 | 0.00 | 0.00 | 41 | 1014.6 |
| 20260503201912 | 19 | 215 | 3.2 | 3.2 | 0.00 | 0.00 | 0.00 | 37 | 1014.5 |
| 20260503201409 | 19 | 275 | 0.0 | 1.6 | 0.00 | 0.00 | 0.00 | 39 | 1014.9 |
| 20260503200907 | 19 | 307 | 3.2 | 4.8 | 0.00 | 0.00 | 0.00 | 37 | 1014.9 |
| 20260503200402 | 20 | 271 | 1.6 | 3.2 | 0.00 | 0.00 | 0.00 | 39 | 1015.1 |
| 20260503195859 | 19 | 260 | 0.0 | 0.0 | 0.00 | 0.00 | 0.00 | 42 | 1015.1 |
| 20260503195356 | 19 | 240 | 4.8 | 4.8 | 0.00 | 0.00 | 0.00 | 39 | 1015.0 |
| 20260503194853 | 20 | 257 | 1.6 | 1.6 | 0.00 | 0.00 | 0.00 | 39 | 1015.2 |
| 20260503194349 | 20 | 233 | 1.6 | 1.6 | 0.00 | 0.00 | 0.00 | 41 | 1015.5 |
| 20260503193845 | 20 | 308 | 3.2 | 3.2 | 0.00 | 0.00 | 0.00 | 40 | 1015.4 |
| 20260503193341 | 20 | 208 | 3.2 | 3.2 | 0.00 | 0.00 | 0.00 | 36 | 1015.6 |
| 20260503192837 | 20 | 231 | 3.2 | 3.2 | 0.00 | 0.00 | 0.00 | 37 | 1015.7 |
| 20260503192333 | 20 | 247 | 1.6 | 1.6 | 0.00 | 0.00 | 0.00 | 41 | 1015.8 |
| 20260503191830 | 20 | 254 | 1.6 | 1.6 | 0.00 | 0.00 | 0.00 | 38 | 1015.6 |
| 20260503191327 | 20 | 241 | 4.8 | 4.8 | 0.00 | 0.00 | 0.00 | 37 | 1015.9 |
| 20260503190823 | 21 | 284 | 1.6 | 1.6 | 0.00 | 0.00 | 0.00 | 35 | 1015.8 |
| 20260503190321 | 21 | 206 | 4.8 | 4.8 | 0.00 | 0.00 | 0.00 | 40 | 1015.7 |
| 20260503185818 | 20 | 268 | 1.6 | 3.2 | 0.00 | 0.00 | 0.00 | 40 | 1016.0 |
| 20260503185313 | 20 | 332 | 3.2 | 4.8 | 0.00 | 0.00 | 0.00 | 42 | 1016.1 |
| 20260503184808 | 20 | 276 | 1.6 | 1.6 | 0.00 | 0.00 | 0.00 | 38 | 1016.3 |
| 20260503184304 | 20 | 340 | 3.2 | 3.2 | 0.00 | 0.00 | 0.00 | 38 | 1016.1 |
| 20260503183800 | 20 | 271 | 1.6 | 3.2 | 0.00 | 0.00 | 0.00 | 40 | 1016.1 |
| 20260503183258 | 20 | 99 | 1.6 | 3.2 | 0.00 | 0.00 | 0.00 | 38 | 1016.2 |
| 20260503182755 | 20 | 234 | 0.0 | 0.0 | 0.00 | 0.00 | 0.00 | 37 | 1016.2 |
| 20260503182254 | 20 | 265 | 1.6 | 1.6 | 0.00 | 0.00 | 0.00 | 40 | 1016.2 |
| 20260503181750 | 19 | 229 | 6.4 | 8.0 | 0.00 | 0.00 | 0.00 | 41 | 1016.3 |
| 20260503181247 | 20 | 247 | 1.6 | 1.6 | 0.00 | 0.00 | 0.00 | 37 | 1016.5 |
| 20260503180744 | 20 | 245 | 1.6 | 3.2 | 0.00 | 0.00 | 0.00 | 39 | 1016.3 |
| 20260503180242 | 20 | 270 | 1.6 | 1.6 | 0.00 | 0.00 | 0.00 | 39 | 1016.5 |
| 20260503175738 | 19 | 267 | 1.6 | 1.6 | 0.00 | 0.00 | 0.00 | 40 | 1016.4 |
| 20260503175237 | 20 | 298 | 3.2 | 3.2 | 0.00 | 0.00 | 0.00 | 39 | 1016.5 |
| 20260503174732 | 20 | 10 | 1.6 | 1.6 | 0.00 | 0.00 | 0.00 | 38 | 1016.4 |
| 20260503174231 | 20 | 297 | 0.0 | 1.6 | 0.00 | 0.00 | 0.00 | 38 | 1016.5 |
| 20260503173730 | 19 | 2 | 1.6 | 3.2 | 0.00 | 0.00 | 0.00 | 40 | 1016.5 |
| 20260503173227 | 20 | 322 | 1.6 | 3.2 | 0.00 | 0.00 | 0.00 | 37 | 1016.5 |
| 20260503172724 | 19 | 258 | 0.0 | 1.6 | 0.00 | 0.00 | 0.00 | 40 | 1016.6 |
| 20260503172221 | 18 | 218 | 4.8 | 8.0 | 0.00 | 0.00 | 0.00 | 40 | 1016.7 |
| 20260503171717 | 18 | 306 | 3.2 | 3.2 | 0.00 | 0.00 | 0.00 | 41 | 1016.9 |
| 20260503171215 | 19 | 264 | 1.6 | 3.2 | 0.00 | 0.00 | 0.00 | 41 | 1016.9 |
| 20260503170711 | 18 | 258 | 3.2 | 4.8 | 0.00 | 0.00 | 0.00 | 43 | 1016.7 |
| 20260503170208 | 17 | 217 | 3.2 | 3.2 | 0.00 | 0.00 | 0.00 | 45 | 1017.0 |
| 20260503160130 | 16 | 51 | 1.6 | 3.2 | 0.00 | 0.00 | 0.00 | 42 | 1017.4 |
| 20260503150600 | 16 | 296 | 0.0 | 1.6 | 0.00 | 0.00 | 0.00 | 49 | 1017.6 |
| 20260503130949 | 10 | 307 | 1.6 | 3.2 | 0.00 | 0.00 | 0.00 | 80 | 1017.2 |
| 20260503130447 | 10 | 245 | 0.0 | 0.0 | 0.00 | 0.00 | 0.00 | 81 | 1017.1 |